Location: Unspecified
(0.0000°N, 0.0000°E)
Time: 11:24:01
(UTC+00:00)

Amsat-Oscar-8 - Pass Details

Date: 11 June 2023
Orbit: 890 x 901 km, 99.2° (Epoch: 21 September)

Event Time Altitude Azimuth Distance (km) Brightness Sun altitude
Rises 03:01:03 0° 16° (NNE) 3,496 12.4 -40.3°
Reaches altitude 10° 03:03:26 10° 18° (NNE) 2,560 11.6 -39.8°
Enters shadow 03:05:30 24° 21° (NNE) 1,785 10.7 -39.3°
